CAPE
12 14 15 2 6 2 8 5 4 7 7 8 8 7 7 1 0 0 0 0 0 0 0 0 0 0 0 0 0 0 0 0 0 0 0 0 0 0 0 0 0 0 0 0 0
8 38 18 13 17 17 14 8 9 5 4 4 3 3 5 0 0 0 0 0 0 0 0 0 0 0 0 0 0 0 0 0 0 0 0 0 0 0 0 0 0 0 0 0 0
13 6 12 14 14 7 9 3 4 11 5 1 1 1 1 0 0 0 0 0 0 0 0 0 0 0 0 0 0 0 0 0 0 0 0 0 0 0 0 0 0 0 0 0 0
11 11 7 0 0 0 0 8 8 3 0 0 0 2 0 0 0 0 0 0 0 0 0 0 0 0 0 0 0 0 0 0 0 0 0 0 0 0 0 0 0 0 0 0 0
14 10 3 8 5 6 5 5 3 0 0 0 0 0 0 0 0 0 0 0 0 0 0 0 0 0 0 0 0 0 0 0 0 0 0 0 0 0 0 0 0 0 0 0 0
11 8 7 6 6 5 3 1 0 0 0 0 0 0 0 0 0 0 0 0 0 0 0 0 0 0 0 0 0 0 0 0 0 0 0 0 0 0 0 0 0 0 0 0 0
4 8 7 8 6 4 0 0 0 0 0 0 0 0 0 0 0 0 0 0 0 0 0 0 0 0 0 0 0 0 0 0 0 0 0 0 0 0 0 0 0 0 0 0 0
5 5 7 9 4 3 0 0 0 0 0 0 0 0 0 0 0 0 0 0 0 0 0 0 0 0 0 0 0 0 0 0 0 0 0 0 0 0 0 0 0 0 0 0 0
11 15 4 7 5 3 0 0 0 0 0 0 0 0 0 0 0 0 0 0 0 0 0 0 0 0 0 0 0 0 0 0 0 0 0 0 0 0 0 0 0 0 0 0 0
15 14 10 7 6 0 0 0 0 0 0 0 0 0 0 0 0 0 0 0 0 0 0 0 0 0 0 0 0 0 0 0 0 0 0 0 0 0 0 0 0 0 0 0 0
6 14 12 10 7 0 0 0 0 0 0 0 0 0 0 0 0 0 0 0 0 0 0 0 0 0 0 0 0 0 0 0 0 0 0 0 0 0 0 0 0 0 0 0 0
3 9 9 7 6 0 0 0 0 0 0 0 0 0 0 0 0 0 0 0 0 0 0 0 0 0 0 0 0 0 0 0 0 0 0 0 0 0 0 0 0 0 0 0 0
1 8 13 12 0 0 0 0 0 0 0 0 0 0 0 0 0 0 0 0 0 0 0 0 0 0 0 0 0 0 0 0 0 0 0 0 0 0 0 0 0 0 0 0 0
4 2 15 16 0 0 0 0 0 0 0 0 0 0 0 0 0 0 0 0 0 0 0 0 0 0 0 0 0 0 0 0 0 0 0 0 0 0 0 0 0 0 0 0 0
10 9 18 3 0 0 0 0 0 0 0 0 0 0 0 0 0 0 0 0 0 0 0 0 0 0 0 0 0 0 0 0 0 0 0 0 0 0 0 0 0 0 0 0 0
4 2 10 1 0 0 0 0 0 0 0 0 0 0 0 0 0 0 0 0 0 0 0 0 0 0 0 0 0 0 0 0 0 0 0 0 0 0 0 0 0 0 0 0 0
0 0 0 1 1 0 0 0 0 0 0 0 0 0 0 0 0 0 0 0 0 0 0 0 0 0 0 0 0 0 0 0 0 0 0 0 0 0 0 0 0 0 0 0 0
1 0 0 0 0 0 0 0 0 0 0 0 0 0 0 0 0 0 0 0 0 0 0 0 0 0 0 0 0 0 0 0 0 0 0 0 0 0 0 0 0 0 0 0 0
0 0 0 0 0 0 0 0 0 0 0 0 0 0 0 0 0 0 0 0 0 0 0 0 0 0 0 0 0 0 0 0 0 0 0 0 0 0 0 0 0 0 0 0 0
0 0 0 0 0 0 0 0 0 0 0 0 0 0 0 0 0 0 0 0 0 0 0 0 0 0 0 0 0 0 0 0 0 0 0 0 0 0 0 0 0 0 0 0 0
0 0 0 0 0 0 0 0 0 0 0 1 1 1 0 0 0 0 0 0 0 0 0 0 0 0 0 0 0 0 0 0 0 0 0 0 0 0 0 0 0 0 0 0 0
0 0 0 0 0 0 0 0 0 0 0 0 0 0 0 0 0 0 0 0 0 0 0 0 0 0 0 0 0 0 0 0 0 0 0 0 0 0 0 0 0 0 0 0 0
0 1 0 0 0 0 0 0 3 0 1 3 7 0 0 0 0 0 0 0 0 0 0 0 0 0 0 0 0 0 0 0 0 0 0 0 0 0 0 0 0 0 0 0 0
0 0 0 0 0 0 0 0 0 2 5 3 2 1 0 0 0 0 0 0 0 0 0 0 0 0 0 0 0 0 0 0 0 0 0 0 0 0 0 0 0 0 0 0 0
0 0 0 0 0 0 0 4 0 0 0 7 0 0 0 0 0 0 0 0 0 0 1 2 1 0 0 0 0 0 0 0 0 0 0 0 0 0 0 0 0 0 0 0 0
0 0 0 0 0 1 1 0 0 2 6 0 0 0 0 0 0 1 1 0 4 0 0 0 0 0 0 0 0 0 0 0 0 0 0 0 0 0 0 0 0 0 0 0 0
2 0 2 0 0 0 0 0 0 2 0 21 1 0 0 0 7 3 0 0 0 0 0 0 0 0 0 0 0 0 0 0 0 0 0 0 0 0 0 0 0 0 0 0 0
CIN
-1 0 0 -1 0 -1 0 -1 0 0 0 -1 -1 -1 0 0 0 0 0 0 0 0 0 0 0 0 0 0 0 0 0 0 0 0 0 0 0 0 0 0 0 0 0 0 0
0 0 -1 -1 -1 -1 0 0 -1 0 0 -1 -1 0 0 -1 0 0 0 0 0 0 0 0 0 0 0 0 0 0 0 0 0 0 0 0 0 0 0 0 0 0 0 0 0
0 -1 -1 -1 -3 -2 -2 -2 -1 0 0 0 0 -1 0 0 0 0 0 0 0 0 0 0 0 0 0 0 0 0 0 0 0 0 0 0 0 0 0 0 0 0 0 0 0
-1 0 -2 0 -1 -1 -1 -1 0 0 0 0 0 0 0 0 0 0 0 0 0 0 0 0 0 0 0 0 0 0 0 0 0 0 0 0 0 0 0 0 0 0 0 0 0
0 -1 0 0 0 -1 0 0 0 0 0 0 0 0 0 0 0 0 0 0 0 0 0 0 0 0 0 0 0 0 0 0 0 0 0 0 0 0 0 0 0 0 0 0 0
0 -1 0 0 0 -1 0 -1 0 0 0 0 0 0 0 0 0 0 0 0 0 0 0 0 0 0 0 0 0 0 0 0 0 0 0 0 0 0 0 0 0 0 0 0 0
-1 0 0 0 0 0 0 0 0 0 0 0 0 0 0 0 0 0 0 0 0 0 0 0 0 0 0 0 0 0 0 0 0 0 0 0 0 0 0 0 0 0 0 0 0
0 0 0 0 0 0 0 0 0 0 0 0 0 0 0 0 0 0 0 0 0 0 0 0 0 0 0 0 0 0 0 0 0 0 0 0 0 0 0 0 0 0 0 0 0
0 0 -2 -1 0 0 0 0 0 0 0 0 0 0 0 0 0 0 0 0 0 0 0 0 0 0 0 0 0 0 0 0 0 0 0 0 0 0 0 0 0 0 0 0 0
0 0 0 0 0 0 0 0 0 0 0 0 0 0 0 0 0 0 0 0 0 0 0 0 0 0 0 0 0 0 0 0 0 0 0 0 0 0 0 0 0 0 0 0 0
0 0 0 -1 0 0 0 0 0 0 0 0 0 0 0 0 0 0 0 0 0 0 0 0 0 0 0 0 0 0 0 0 0 0 0 0 0 0 0 0 0 0 0 0 0
0 0 0 0 0 0 0 0 0 0 0 0 0 0 0 0 0 0 0 0 0 0 0 0 0 0 0 0 0 0 0 0 0 0 -1 0 0 0 0 0 0 0 0 0 0
0 0 0 0 0 0 0 0 0 0 0 0 0 0 0 0 0 0 0 0 0 0 0 0 0 0 0 0 0 0 0 0 0 0 0 0 0 0 0 0 0 0 0 0 0
0 0 0 0 0 0 0 0 0 0 0 0 0 0 0 0 0 0 0 0 0 0 0 0 0 0 0 0 0 0 0 0 0 0 0 0 0 0 0 0 0 0 0 0 0
0 0 0 -5 0 0 0 0 0 0 0 0 0 0 0 0 0 0 0 0 0 0 0 0 0 0 0 0 0 0 0 0 0 0 0 0 0 0 0 0 0 0 0 0 0
0 0 0 -4 0 0 0 0 0 0 0 0 0 0 0 0 0 0 0 0 0 0 0 0 0 0 0 0 0 0 0 0 0 0 0 0 0 0 0 0 0 0 0 0 0
0 0 0 -4 0 0 0 0 0 0 0 0 0 0 0 0 0 0 0 0 0 0 0 0 0 0 0 0 0 0 0 0 0 0 0 0 0 0 0 0 0 0 0 0 0
0 0 0 0 0 0 0 0 0 0 0 0 0 0 0 0 0 0 0 0 0 0 0 0 0 0 0 0 0 0 0 0 0 0 0 0 0 0 0 0 0 0 0 0 0
0 0 0 0 0 0 0 0 0 0 0 0 0 0 0 0 0 0 0 0 0 0 0 0 0 0 0 0 0 0 0 0 0 0 0 0 0 0 0 0 0 0 0 0 0
0 0 0 0 0 0 0 0 0 0 0 0 0 0 0 0 0 0 0 0 0 0 0 0 0 0 0 0 0 0 0 0 0 0 0 0 0 0 0 0 0 0 0 0 0
0 0 0 0 0 0 0 0 0 0 0 -4 -3 -3 -13 0 0 0 0 0 0 0 0 0 0 0 0 0 0 0 0 0 0 0 0 0 0 0 0 0 0 0 0 0 0
-1 0 0 0 0 0 0 0 0 0 -1 0 0 -19 -1 0 0 0 0 0 0 0 0 0 0 0 0 0 0 0 0 0 -3 0 0 0 0 0 0 0 0 0 0 0 0
0 0 0 0 0 0 0 0 -1 0 -7 -11 -7 -1 0 0 0 0 0 0 0 0 0 0 0 0 0 0 0 0 0 0 -1 0 0 0 0 0 0 0 0 0 0 0 0
0 0 0 0 0 -1 0 0 -2 -9 -3 -2 -12 -11 0 0 0 0 0 0 0 0 0 0 0 0 0 0 0 0 0 0 0 0 0 0 0 0 0 0 0 0 0 0 0
0 0 0 0 0 0 0 -3 -1 0 0 -12 0 0 0 0 0 0 0 0 0 0 -1 -22 -7 0 0 0 0 0 0 0 0 0 0 0 0 0 0 0 0 0 0 0 0
0 0 0 0 0 -1 -2 0 0 -1 -2 0 0 0 0 0 0 -5 -5 0 -11 -2 0 0 0 0 0 0 0 0 0 0 0 0 0 0 0 0 0 0 0 0 0 0 0
-4 -4 -2 0 0 0 0 0 0 0 -1 -1 -5 0 0 0 -1 -8 -4 0 0 0 0 0 0 0 0 0 0 0 0 0 0 0 0 0 0 0 0 0 0 0 0 0 0
Wind_Speed
34 34 35 36 36 37 36 37 36 36 36 35 34 34 32 31 29 21 24 23 22 25 28 30 30 31 27 28 26 25 39 50 49 49 51 44 48 40 40 50 46 44 52 53 55
35 35 36 37 37 38 38 37 37 37 36 35 34 32 29 28 27 22 22 21 22 27 30 33 34 31 29 28 27 29 40 44 38 40 49 53 50 53 54 59 65 60 59 57 58
36 37 36 37 38 39 38 38 36 35 33 33 31 29 26 26 29 21 19 23 25 27 28 27 28 29 31 28 29 32 43 40 44 43 45 54 55 45 52 64 57 62 64 61 61
36 38 38 39 40 40 40 39 38 36 36 35 29 28 25 26 34 21 22 25 26 26 26 29 30 32 33 35 30 39 37 39 41 42 46 52 52 53 54 63 56 59 61 63 61
37 39 40 41 41 42 42 41 38 37 37 32 27 25 27 28 24 17 21 26 26 27 27 30 31 32 35 33 34 39 40 41 43 48 47 47 56 60 65 59 57 57 58 62 61
38 39 40 41 42 43 44 43 38 42 36 28 26 25 28 31 19 18 22 27 28 26 27 26 29 29 34 35 37 37 44 49 48 51 48 52 57 53 60 59 58 56 59 60 62
39 39 40 42 44 45 47 42 38 38 30 26 27 22 24 23 17 21 24 27 27 24 27 25 27 30 31 38 34 37 46 50 50 46 46 40 54 54 53 54 53 56 60 60 62
39 41 41 43 45 47 45 42 41 32 26 28 24 21 25 17 19 24 25 28 25 24 24 25 24 28 30 31 36 41 42 50 44 40 35 33 60 51 42 46 53 55 55 55 58
39 41 42 43 44 46 41 40 35 28 25 25 24 23 24 20 23 25 28 31 28 24 23 23 25 28 29 35 41 38 45 44 50 32 37 33 51 46 42 43 51 54 54 53 55
37 39 40 41 43 41 42 36 31 25 27 25 22 27 21 23 23 26 27 27 25 25 24 24 26 29 31 32 40 41 40 44 46 39 41 52 56 48 41 41 46 46 46 49 51
36 38 39 41 45 37 42 33 38 29 35 30 26 24 21 23 24 27 28 26 24 24 29 27 30 32 32 28 33 37 41 43 43 38 43 47 46 31 37 39 41 39 37 39 43
38 39 39 39 42 34 35 35 33 28 38 29 22 17 19 22 32 31 25 29 27 30 27 29 31 28 30 30 32 33 36 37 39 37 37 43 36 34 43 41 27 32 34 36 40
34 36 35 35 35 33 33 32 30 27 36 31 20 20 22 23 33 32 25 28 29 30 26 27 29 31 28 30 33 31 31 32 36 45 38 34 36 40 37 27 27 30 31 34 39
34 35 35 36 31 34 32 30 29 27 38 31 23 23 23 26 32 25 25 24 26 31 27 27 26 27 29 31 32 32 23 25 33 43 43 28 46 40 41 27 28 34 36 40 43
32 34 34 32 31 35 29 29 26 28 46 27 27 21 25 32 36 32 23 22 29 29 27 30 28 29 29 28 26 26 27 28 28 28 30 27 22 37 31 33 31 35 41 42 43
35 36 35 29 29 26 26 26 28 39 37 35 29 33 37 35 34 31 28 24 26 30 27 27 25 26 24 26 24 26 29 32 28 23 22 23 18 28 31 27 34 39 42 46 46
37 36 36 27 30 23 24 30 41 38 33 37 40 39 42 43 38 36 35 33 34 40 34 30 27 22 18 26 26 23 33 32 29 23 22 26 31 13 26 26 35 45 49 48 46
35 33 31 26 22 22 25 36 43 36 39 38 41 44 45 40 38 38 37 38 31 26 30 33 32 22 19 24 28 26 21 23 28 28 29 34 18 22 19 22 35 42 46 45 43
37 32 30 25 21 22 31 42 39 40 38 44 48 46 45 38 42 39 34 35 28 22 28 29 26 22 22 27 21 23 19 19 19 21 26 22 24 13 13 33 45 45 45 45 42
38 33 28 23 21 26 33 39 37 35 40 42 51 41 50 51 46 39 33 31 29 21 17 25 30 22 23 25 24 16 20 23 19 25 31 21 24 13 27 44 46 45 43 41 34
36 38 27 22 24 30 39 39 40 36 39 43 46 46 43 51 40 37 38 34 26 24 18 23 21 22 23 26 25 22 18 15 16 19 22 27 23 19 23 34 32 33 29 27 20
35 41 26 23 35 31 39 39 38 43 39 41 37 41 47 40 43 43 40 30 23 22 25 19 21 21 22 28 25 14 17 16 20 24 20 9 30 14 19 27 27 18 15 13 12
40 33 26 25 39 41 39 43 43 43 42 39 45 44 35 42 51 36 39 30 22 21 21 20 18 25 24 23 22 22 20 19 30 31 10 5 18 12 15 29 25 14 17 16 8
36 40 32 27 31 40 48 51 45 39 43 43 41 42 47 46 38 43 42 33 25 19 17 16 15 16 16 19 30 36 32 11 34 33 21 15 27 23 19 19 9 11 11 11 10
32 35 33 41 41 41 44 45 51 54 41 39 52 43 44 52 49 45 35 40 25 20 20 18 19 15 11 28 18 36 33 28 31 24 22 25 29 24 22 10 5 8 14 16 16
35 37 34 41 38 42 45 47 50 47 51 52 45 48 48 50 47 50 41 35 27 22 24 21 16 15 26 36 11 34 31 29 32 27 21 20 21 19 12 18 18 6 6 13 18
29 30 34 38 42 46 46 46 53 48 41 42 49 50 47 46 42 38 34 29 23 19 15 14 8 15 21 28 31 32 22 18 22 23 23 23 23 27 25 25 16 13 4 11 10
Wind_Direction
347 353 350 346 346 344 343 345 345 342 344 345 346 345 347 347 347 353 347 347 347 346 341 333 331 326 322 312 308 305 291 286 286 286 285 292 290 291 291 285 284 283 280 281 286
0 360 357 352 350 350 349 349 344 346 347 348 348 349 350 352 350 346 352 357 352 345 338 332 327 327 320 314 309 296 291 291 293 294 290 290 291 291 288 284 279 282 282 284 285
359 357 358 357 353 350 350 351 354 352 354 352 352 353 355 355 345 348 2 355 348 346 343 339 333 328 319 316 307 302 292 298 295 296 297 292 291 293 289 282 285 284 283 284 284
359 354 353 352 351 350 349 350 351 352 350 349 354 358 0 354 340 353 354 351 348 346 343 338 332 324 317 311 310 302 300 298 299 301 299 295 295 291 289 285 290 287 286 284 283
357 352 350 349 349 350 348 348 351 351 347 351 356 359 355 349 345 358 357 353 348 344 339 335 329 325 317 315 313 303 305 303 302 301 301 299 293 291 288 291 292 289 287 283 283
352 351 351 351 350 348 346 346 350 345 350 355 358 358 353 345 6 7 355 348 346 342 338 337 331 328 319 316 311 311 307 304 304 303 303 300 295 297 291 294 291 291 288 286 283
353 355 354 349 345 345 342 348 351 350 357 360 356 357 354 349 6 356 349 347 346 343 336 335 333 328 326 318 317 314 308 306 304 305 305 310 296 294 298 295 293 292 289 287 284
355 351 347 345 345 345 348 350 349 356 360 360 5 4 352 5 359 350 351 347 347 343 338 336 335 328 323 321 317 313 311 306 310 315 315 312 295 300 303 300 297 295 293 290 286
0 355 350 349 351 351 357 354 356 1 5 3 3 1 355 1 352 354 351 344 343 346 344 341 337 329 327 320 317 316 310 309 310 322 316 311 302 304 303 302 298 296 294 291 290
5 1 0 358 356 358 358 359 3 8 6 5 6 356 355 356 354 349 352 350 348 345 344 342 337 329 327 323 317 317 314 312 311 318 313 308 303 304 302 304 301 300 298 295 292
6 3 1 359 355 3 0 7 4 3 355 352 345 345 351 355 351 350 351 352 350 346 337 339 332 325 323 318 316 316 313 311 312 317 312 311 309 303 310 310 306 307 309 304 301
4 1 2 2 359 7 8 9 7 356 348 352 348 349 347 355 348 348 356 349 346 337 340 337 327 328 331 327 322 319 315 312 316 322 319 317 310 301 273 302 315 314 315 312 306
7 5 5 4 6 8 9 9 5 3 349 354 3 0 359 357 347 349 353 348 341 336 334 329 329 334 332 328 325 323 318 319 320 321 324 320 315 311 313 321 320 322 324 319 315
5 3 3 3 8 5 6 6 6 7 352 356 5 2 360 356 347 352 350 347 345 337 335 331 336 334 332 328 329 326 334 328 327 325 320 330 308 273 311 324 322 320 321 319 315
3 1 1 4 358 359 2 5 10 5 349 5 358 5 357 346 343 347 354 347 335 334 335 325 328 327 327 331 337 331 339 333 330 325 327 328 328 313 333 325 323 322 320 323 323
2 359 357 1 359 1 5 8 5 355 353 352 355 351 345 345 343 345 346 346 342 336 331 317 333 330 330 337 338 337 339 336 344 347 340 345 343 279 340 341 322 325 327 327 325
359 356 354 356 353 7 9 4 356 356 356 351 346 346 343 339 341 345 343 340 335 336 337 339 337 340 343 341 344 348 342 343 344 343 340 342 335 327 342 347 333 321 325 331 331
356 356 358 360 9 11 9 360 353 353 346 347 346 341 339 345 344 343 340 338 342 340 336 341 344 351 354 344 338 341 346 348 341 337 283 329 355 357 4 2 347 341 338 341 341
356 358 359 9 13 15 2 354 353 351 351 346 343 342 344 346 341 341 339 339 345 346 339 340 338 346 338 338 349 350 349 352 343 341 339 349 347 347 16 346 335 346 346 344 342
356 358 3 14 18 8 358 351 348 351 349 347 342 343 339 341 341 344 345 346 345 342 340 342 331 343 346 336 341 343 347 343 353 341 336 350 350 9 355 330 343 350 353 347 332
357 356 6 13 9 359 351 350 348 350 350 345 339 336 337 336 340 342 338 336 339 346 343 338 337 341 339 336 339 340 340 353 350 345 349 342 352 8 4 1 3 5 8 306 305
357 351 3 7 352 356 350 350 348 343 344 341 343 339 334 338 339 332 332 332 339 339 337 336 337 332 331 327 336 352 347 351 343 333 338 273 270 17 15 9 11 3 2 305 308
350 351 2 3 351 348 346 342 339 340 345 347 341 336 337 337 334 333 336 336 331 327 338 344 337 334 335 337 342 342 339 339 312 278 253 295 261 20 4 5 15 2 18 26 4
352 348 353 355 352 345 343 342 347 347 343 339 342 343 331 330 338 333 329 335 334 322 324 326 326 322 303 299 320 311 293 309 279 283 249 245 266 276 286 296 348 1 20 31 34
355 348 349 343 344 342 339 338 338 340 342 347 336 339 339 337 335 334 333 333 329 325 323 325 310 308 279 247 287 268 265 257 253 234 242 262 275 275 284 290 340 25 40 48 49
348 348 348 335 339 342 341 339 338 343 341 339 339 343 337 333 332 333 334 333 323 330 318 312 280 313 304 283 258 268 262 255 255 241 230 248 263 273 42 29 302 311 40 64 63
350 344 341 339 339 340 342 342 336 339 347 345 337 335 339 338 334 327 320 312 305 304 312 316 310 319 314 302 299 289 302 337 290 287 279 267 282 336 300 312 300 301 69 82 81